OPS 6432

Satellite information

Favourite Embed

Satellite Type and Status

PAYLOADIN ORBIT

Key statistics

Satellite OPS 6432 at a glance.

Uptime

15477

Days in orbit

Revolutions

≈ 13.9

Per day

Orbit

LEO

Low Earth Orbit

Inclination

63.3

Latest

Satellite identification and parameters

Extended collection of information and parameters for OPS 6432.

Object identification

Identified? True

Debris? False

Object name: OPS 6432

International designator: 1983-056A

Object number (NORAD): 14112

Object ID (CCSDS): 14112

Country: UNITED STATES OF AMERICA (US)

Current information (Y/N): Y

RCS size: LARGE

Orbital parameters

Period: 103.848 minutes

Inclination: 63.2997 deg

SMA: 7318.562 km

Apoapsis: 1465.374 km

Periapsis: 415.479 km

RAAN: 113.0818 deg

Eccentricy: 0.07172826

Argument of periapsis: 128.8934 deg

Mean anomaly: 237.8362 deg

Mean motion: 13.86641382 rev/day

Mean motion (dot): 0.00010325 rev/day2

B* drag term: 0.0010249604 1/REarth

Two-line elements (TLE)

Creation date: Oct. 23, 2025, 2:46 a.m.

Reference frame: TEME

Reference center: EARTH

Epoch: Oct. 22, 2025, 9:36 p.m. UTC

TLE line 0: 0 OPS 6432

TLE line 1: 1 14112U 83056A 25295.90004558 .00010325 00000-0 10250-2 0 9996

TLE line 2: 2 14112 63.2997 113.0818 0717283 128.8934 237.8362 13.86641382 75366

Live tracking on map

Real-time ground track for satellite OPS 6432.

In-orbit conjunctions

There are no conjunctions computed for OPS 6432, at the moment. Check back to stay up to date, as we update our databases every day.

Go to all conjunctions

Associated space launch

The Parcae satellites were passive ELINT satellites. MSD satellites were dispensers of triplets of ocean surveillance satellites.

OPS 6432 was lifted into orbit during the mission ‘Atlas H | Parcae 6A,B,C & MSD 6’, on board a Atlas H space rocket.

The launch took place on June 9, 1983, 11:23 p.m. from Space Launch Complex 3E.

For more information about the launch, click the button.

Launch to space Atlas H | Parcae 6A,B,C & MSD 6
Atlas H | Parcae 6A,B,C & MSD 6

Agency: N/A

Status: Launch Successful

Launch date: June 9, 1983, 11:23 p.m. UTC

Rocket: Atlas H

Launch pad: Space Launch Complex 3E

Location: Vandenberg SFB, CA, USA

...

Latest news about this satellite

There are no fresh news available about this satellite. Check back as we update our databases every day.


Newsletter sign-up

Weekly statistics, charts and insights to help you stay on top of the space industry.